Overview Statistics Trail Chart Weather Telemetry Raw packets
 

This is the latest recevied weather packets stored in our database for station/object KB1WCR. If no packets are shown the sender has not sent any weather packets the latest 10 day(s).

<< 62 63 64 65 66 67 68 >>
Time Temp. Humidity Pressure Rain* Wind** Luminosity Snow
1787969729 20.56° C 85% 1016.5 hPa 0 mm - 0 W/m² -
1787969429 20.56° C 86% 1016.4 hPa 0 mm - 0 W/m² -
1787969129 20.56° C 85% 1016.3 hPa 0 mm - 0 W/m² -
1787968824 21.11° C 84% 1016.1 hPa 0 mm - 0 W/m² -
1787968523 21.11° C 84% 1016.3 hPa 0 mm - 0 W/m² -
1787968218 21.11° C 84% 1016.1 hPa 0 mm - 0 W/m² -
1787967914 21.11° C 85% 1016.2 hPa 0 mm - 0 W/m² -
1787967609 21.11° C 85% 1016.2 hPa 0 mm - 0 W/m² -
1787967304 21.67° C 86% 1016 hPa 0 mm - 0 W/m² -
1787967000 21.67° C 85% 1016.1 hPa 0 mm - 0 W/m² -
1787966697 21.67° C 85% 1016.1 hPa 0 mm - 0 W/m² -
1787966396 22.22° C 85% 1016 hPa 0 mm - 0 W/m² -
1787966091 22.22° C 85% 1016 hPa 0 mm - 0 W/m² -
1787965790 22.22° C 85% 1015.9 hPa 0 mm - 0 W/m² -
1787965485 22.22° C 86% 1015.7 hPa 0 mm - 0 W/m² -
1787965184 22.22° C 87% 1015.7 hPa 0 mm - 0 W/m² -
1787964887 22.22° C 89% 1015.5 hPa 0 mm - 0 W/m² -
1787964574 22.22° C 92% 1015.5 hPa 0 mm - 0 W/m² -
1787964270 21.67° C 95% 1015.5 hPa 0 mm - 0 W/m² -
1787963969 21.67° C 97% 1015.1 hPa 0 mm - 0 W/m² -
1787963663 21.11° C 99% 1015.2 hPa 0 mm - 0 W/m² -
1787963357 20.56° C 99% 1014.8 hPa 0 mm - 0 W/m² -
1787963053 21.11° C 99% 1014.8 hPa 0 mm - 0 W/m² -
1787962752 21.11° C 99% 1014.5 hPa 0 mm - 0 W/m² -
1787962451 21.11° C 99% 1014.5 hPa 0 mm - 0 W/m² -

* Rain latest hour (hover to see other rain measurements)
** Current wind speed in m/s (hover to see current wind gust speed)